Maun, Botswana

11:37 AM CAT on May 26, 2017 (GMT +0200)
Maun

Weather History for FBMN - April, 2013

Change the Weather History Date:

Thursday, April 4, 2013

  Actual Average Record
Temperature  
Mean Temperature 78 °F -  
Max Temperature 91 °F 85 °F 93 °F (2002)
Min Temperature 64 °F 60 °F 57 °F (2012)
Cooling Degree Days 12    
Growing Degree Days 28 (Base 50)    
Moisture  
Dew Point 47 °F    
Average Humidity 31    
Maximum Humidity 43    
Minimum Humidity 15    
Precipitation  
Precipitation 0.00 in - - ()
Sea Level Pressure  
Sea Level Pressure 30.02 in    
Wind  
Wind Speed 7 mph ()    
Max Wind Speed 13 mph    
Max Gust Speed -    
Visibility 6.1 miles    
Events      
Averages and records for this station are not official NWS values.
T = Trace of Precipitation, MM = Missing Value Source: Averaged Metar Reports

Daily Weather History Graph

Daily Weather History Graph

Search for Another Location

Airport or City:

Trip Planner

Search our weather history database for the weather conditions in past years. The results will help you decide how hot, cold, wet, or windy it might be!

Date:

Astronomy

Apr. 04, 2013 Rise Set
Actual Time 6:34 AM CAT 6:24 PM CAT
Civil Twilight 6:12 AM CAT 6:46 PM CAT
Nautical Twilight 5:46 AM CAT 7:11 PM CAT
Astronomical Twilight 5:20 AM CAT 7:37 PM CAT
Moon 12:53 AM CAT (4/4) 2:07 PM CAT (4/4)
Length of Visible Light 12h 34m
Length of Day
11h 49m
Last Quarter, 36% of the Moon is Illuminated
Apr 4
Last Quarter
Apr 10
New
Apr 18
First Quarter
Apr 25
Full
May 2
Last Quarter

Hourly Weather History & Observations

Time (CAT) Temp. Dew Point Humidity Pressure Visibility Wind Dir Wind Speed Gust Speed Precip Events Conditions
12:00 AM 77.0 °F 50.0 °F 39% 29.98 in - South 12.7 mph - N/A   Clear
1:00 AM 77.0 °F 50.0 °F 39% 30.01 in - South 8.1 mph - N/A   Clear
2:00 AM 74 °F 47 °F 27%  in 6 mi South 6.9 mph - -   Partly Cloudy
2:00 AM 75.2 °F 46.4 °F 36% 30.01 in - South 6.9 mph - N/A   Clear
4:00 AM 71.6 °F 44.6 °F 38% 30.01 in - South 6.9 mph - N/A   Clear
5:00 AM 69.8 °F 44.6 °F 40% 30.01 in - South 6.9 mph - N/A   Clear
6:00 AM 68.0 °F 44.6 °F 43% 30.04 in - South 4.6 mph - N/A   Clear
7:00 AM 68.0 °F 42.8 °F 40% 30.04 in - SSW 6.9 mph - N/A   Clear
8:00 AM 69 °F 45 °F 31%  in 6 mi South 9.2 mph - -   Scattered Clouds
8:00 AM 69.8 °F 44.6 °F 40% 30.06 in - South 9.2 mph - N/A   Clear
10:00 AM 80.6 °F 50.0 °F 34% 30.09 in - SSE 9.2 mph - N/A   Clear
11:00 AM 84.2 °F 51.8 °F 33% 30.06 in - South 10.4 mph - N/A   Clear
12:00 PM 86.0 °F 50.0 °F 29% 30.06 in 6.2 mi South 6.9 mph - N/A   Partly Cloudy
1:00 PM 87.8 °F 51.8 °F 29% 30.04 in 6.2 mi WNW 4.6 mph - N/A   Partly Cloudy
2:00 PM 89 °F 48 °F 15%  in 6 mi SSE 4.6 mph - -   Scattered Clouds
2:00 PM 89.6 °F 48.2 °F 24% 29.98 in 6.2 mi SSE 4.6 mph - N/A   Partly Cloudy
3:00 PM 91.4 °F 48.2 °F 23% 29.98 in 6.2 mi WSW 12.7 mph - N/A   Partly Cloudy
4:00 PM 91.4 °F 46.4 °F 21% 29.95 in 6.2 mi West 11.5 mph - N/A   Partly Cloudy
5:00 PM 89.6 °F 42.8 °F 20% 29.95 in 6.2 mi WSW 9.2 mph - N/A   Partly Cloudy
6:00 PM 87.8 °F 42.8 °F 21% 29.98 in - SW 8.1 mph - N/A   Clear
7:00 PM 84.2 °F 46.4 °F 27% 29.98 in - SSW 3.5 mph - N/A   Clear
8:00 PM 82.4 °F 46.4 °F 28% 30.01 in - SSW 6.9 mph - N/A   Clear
9:00 PM 77.0 °F 48.2 °F 36% 30.04 in - SSW 6.9 mph - N/A   Clear
10:00 PM 77.0 °F 44.6 °F 32% 30.04 in - South 8.1 mph - N/A   Clear
11:00 PM 75.2 °F 44.6 °F 34% 30.06 in - South 10.4 mph - N/A   Clear